owner,sensor,date,latitude,longitude,vertical_datum,direction_of_sea_water_velocity,sea_water_speed,upward_sea_water_velocity,qcFlag 
TABS,ioos:station:wmo:42043:1,1999-01-01T00:00:00Z,28.9818,-94.9186,2.0,222.3492741,41.13397744,-99999.0,'11111222,11111222,99999999' 
TABS,ioos:station:wmo:42043:1,1999-01-01T00:30:00Z,28.9818,-94.9186,2.0,213.3685937,37.10725266,-99999.0,'11111222,11111222,99999999' 
TABS,ioos:station:wmo:42043:1,1999-01-01T01:00:00Z,28.9818,-94.9186,2.0,210.3044908,30.71742828,-99999.0,'11111222,11111222,99999999' 
TABS,ioos:station:wmo:42043:1,1999-01-01T01:30:00Z,28.9818,-94.9186,2.0,210.4411003,27.65186612,-99999.0,'11111222,11111222,99999999' 
TABS,ioos:station:wmo:42043:1,1999-01-01T02:00:00Z,28.9818,-94.9186,2.0,217.89737,33.22734567,-99999.0,'11111222,11111222,99999999' 
TABS,ioos:station:wmo:42043:1,1999-01-01T02:30:00Z,28.9818,-94.9186,2.0,227.0085562,41.95721869,-99999.0,'11111222,11111222,99999999' 
TABS,ioos:station:wmo:42043:1,1999-01-01T03:00:00Z,28.9818,-94.9186,2.0,233.2953533,40.13816762,-99999.0,'11111222,11111222,99999999' 
TABS,ioos:station:wmo:42043:1,1999-01-02T01:30:00Z,28.9818,-94.9186,2.0,242.8654467,20.25977542,-99999.0,'11111222,11111222,99999999' 
TABS,ioos:station:wmo:42043:1,1999-01-02T02:00:00Z,28.9818,-94.9186,2.0,250.8154269,18.13721313,-99999.0,'11111222,11111222,99999999' 
TABS,ioos:station:wmo:42043:1,1999-01-02T02:30:00Z,28.9818,-94.9186,2.0,248.5585658,17.12516277,-99999.0,'11111222,11111222,99999999' 
TABS,ioos:station:wmo:42043:1,1999-01-02T03:00:00Z,28.9818,-94.9186,2.0,262.6662483,16.37393355,-99999.0,'11111222,11111222,99999999' 
TABS,ioos:station:wmo:42043:1,1999-01-02T03:30:00Z,28.9818,-94.9186,2.0,264.2889993,14.97431468,-99999.0,'11111222,11111222,99999999' 
TABS,ioos:station:wmo:42043:1,1999-01-02T04:00:00Z,28.9818,-94.9186,2.0,259.9644518,17.10163735,-99999.0,'11111222,11111222,99999999' 
TABS,ioos:station:wmo:42043:1,1999-01-02T04:30:00Z,28.9818,-94.9186,2.0,258.9912985,16.39161371,-99999.0,'11111222,11111222,99999999' 
TABS,ioos:station:wmo:42043:1,1999-01-02T05:00:00Z,28.9818,-94.9186,2.0,261.4555239,17.02898999,-99999.0,'11111222,11111222,99999999' 
TABS,ioos:station:wmo:42043:1,1999-01-02T05:30:00Z,28.9818,-94.9186,2.0,270.0004209,14.15,-99999.0,'11111222,11111222,99999999' 
TABS,ioos:station:wmo:42043:1,1999-01-02T06:00:00Z,28.9818,-94.9186,2.0,262.5067535,14.87703263,-99999.0,'11111222,11111222,99999999' 
TABS,ioos:station:wmo:42043:1,1999-01-02T06:30:00Z,28.9818,-94.9186,2.0,242.4351518,15.12706515,-99999.0,'11111222,11111222,99999999' 
TABS,ioos:station:wmo:42043:1,1999-01-02T07:00:00Z,28.9818,-94.9186,2.0,244.9757275,14.79917903,-99999.0,'11111222,11111222,99999999' 
TABS,ioos:station:wmo:42043:1,1999-01-02T07:30:00Z,28.9818,-94.9186,2.0,243.1971785,16.18927114,-99999.0,'11111222,11111222,99999999' 
TABS,ioos:station:wmo:42043:1,1999-01-02T08:00:00Z,28.9818,-94.9186,2.0,233.4982233,19.28239871,-99999.0,'11111222,11111222,99999999' 
TABS,ioos:station:wmo:42043:1,1999-01-02T08:30:00Z,28.9818,-94.9186,2.0,184.2169401,12.10276828,-99999.0,'11111222,11111222,99999999' 
TABS,ioos:station:wmo:42043:1,1999-01-02T09:00:00Z,28.9818,-94.9186,2.0,202.1319773,13.82896236,-99999.0,'11111222,11111222,99999999' 
TABS,ioos:station:wmo:42043:1,1999-01-02T09:30:00Z,28.9818,-94.9186,2.0,212.0675069,14.59723947,-99999.0,'11111222,11111222,99999999' 
TABS,ioos:station:wmo:42043:1,1999-01-02T10:00:00Z,28.9818,-94.9186,2.0,218.9762082,16.10488435,-99999.0,'11111222,11111222,99999999' 
TABS,ioos:station:wmo:42043:1,1999-01-02T10:30:00Z,28.9818,-94.9186,2.0,211.4562673,21.13626741,-99999.0,'11111222,11111222,99999999' 
TABS,ioos:station:wmo:42043:1,1999-01-02T11:00:00Z,28.9818,-94.9186,2.0,212.7650624,22.85662486,-99999.0,'11111222,11111222,99999999' 
TABS,ioos:station:wmo:42043:1,1999-01-02T11:30:00Z,28.9818,-94.9186,2.0,214.0765191,36.15895601,-99999.0,'11111222,11111222,99999999' 
TABS,ioos:station:wmo:42043:1,1999-01-02T12:00:00Z,28.9818,-94.9186,2.0,205.8369436,47.17589639,-99999.0,'11111222,11111222,99999999' 
TABS,ioos:station:wmo:42043:1,1999-01-02T12:30:00Z,28.9818,-94.9186,2.0,205.1304205,48.05921556,-99999.0,'11111222,11111222,99999999' 
TABS,ioos:station:wmo:42043:1,1999-01-02T13:00:00Z,28.9818,-94.9186,2.0,175.0071349,41.13607662,-99999.0,'11111222,11111222,99999999' 
TABS,ioos:station:wmo:42043:1,1999-01-02T13:30:00Z,28.9818,-94.9186,2.0,176.7412461,31.49091456,-99999.0,'11111222,11111222,99999999' 
TABS,ioos:station:wmo:42043:1,1999-01-02T14:00:00Z,28.9818,-94.9186,2.0,184.3118532,21.81174225,-99999.0,'11111222,11111222,99999999' 
TABS,ioos:station:wmo:42043:1,1999-01-02T14:30:00Z,28.9818,-94.9186,2.0,193.3116843,17.45910937,-99999.0,'11111222,11111222,99999999' 
TABS,ioos:station:wmo:42043:1,1999-01-02T15:00:00Z,28.9818,-94.9186,2.0,194.8655047,17.42315987,-99999.0,'11111222,11111222,99999999' 
TABS,ioos:station:wmo:42043:1,1999-01-02T15:30:00Z,28.9818,-94.9186,2.0,198.4193056,11.77316015,-99999.0,'11111222,11111222,99999999' 
TABS,ioos:station:wmo:42043:1,1999-01-02T16:00:00Z,28.9818,-94.9186,2.0,181.7337397,19.82907966,-99999.0,'11111222,11111222,99999999' 
TABS,ioos:station:wmo:42043:1,1999-01-02T16:30:00Z,28.9818,-94.9186,2.0,177.7613599,15.36172191,-99999.0,'11111222,11111222,99999999' 
TABS,ioos:station:wmo:42043:1,1999-01-02T17:00:00Z,28.9818,-94.9186,2.0,187.1100052,9.613932598,-99999.0,'11133222,11111222,99999999' 
TABS,ioos:station:wmo:42043:1,1999-01-02T17:30:00Z,28.9818,-94.9186,2.0,218.1205872,2.656633208,-99999.0,'11133222,11111222,99999999' 
TABS,ioos:station:wmo:42043:1,1999-01-02T18:00:00Z,28.9818,-94.9186,2.0,134.9998948,1.895046174,-99999.0,'11133222,11111222,99999999' 
TABS,ioos:station:wmo:42043:1,1999-01-02T18:30:00Z,28.9818,-94.9186,2.0,50.22602042,4.657982396,-99999.0,'11133222,11111222,99999999' 
TABS,ioos:station:wmo:42043:1,1999-01-02T19:00:00Z,28.9818,-94.9186,2.0,23.76275455,9.604217823,-99999.0,'11133222,11111222,99999999' 
TABS,ioos:station:wmo:42043:1,1999-01-02T19:30:00Z,28.9818,-94.9186,2.0,40.74591761,18.49229569,-99999.0,'11111222,11111222,99999999' 
TABS,ioos:station:wmo:42043:1,1999-01-02T20:00:00Z,28.9818,-94.9186,2.0,39.45587791,21.81020862,-99999.0,'11111222,11111222,99999999' 
TABS,ioos:station:wmo:42043:1,1999-01-02T20:30:00Z,28.9818,-94.9186,2.0,37.16650382,23.19031048,-99999.0,'11111222,11111222,99999999' 
TABS,ioos:station:wmo:42043:1,1999-01-02T21:00:00Z,28.9818,-94.9186,2.0,35.24086351,27.36506167,-99999.0,'11111222,11111222,99999999' 
TABS,ioos:station:wmo:42043:1,1999-01-02T21:30:00Z,28.9818,-94.9186,2.0,33.47501877,22.15488208,-99999.0,'11111222,11111222,99999999' 
TABS,ioos:station:wmo:42043:1,1999-01-02T22:00:00Z,28.9818,-94.9186,2.0,50.54308435,18.52087741,-99999.0,'11111222,11111222,99999999' 
TABS,ioos:station:wmo:42043:1,1999-01-02T22:30:00Z,28.9818,-94.9186,2.0,88.79816975,14.30314651,-99999.0,'11111222,11111222,99999999' 
TABS,ioos:station:wmo:42043:1,1999-01-02T23:00:00Z,28.9818,-94.9186,2.0,118.6398399,10.8699448,-99999.0,'11111222,11111222,99999999' 
TABS,ioos:station:wmo:42043:1,1999-01-02T23:30:00Z,28.9818,-94.9186,2.0,115.6820781,13.06018759,-99999.0,'11111222,11111222,99999999' 
TABS,ioos:station:wmo:42043:1,1999-01-03T00:00:00Z,28.9818,-94.9186,2.0,111.9923009,8.358193585,-99999.0,'11133222,11111222,99999999' 
TABS,ioos:station:wmo:42043:1,1999-01-03T00:30:00Z,28.9818,-94.9186,2.0,133.3523439,14.75634779,-99999.0,'11111222,11111222,99999999' 
TABS,ioos:station:wmo:42043:1,1999-01-03T01:00:00Z,28.9818,-94.9186,2.0,109.9138107,9.189477678,-99999.0,'11133222,11111222,99999999' 
TABS,ioos:station:wmo:42043:1,1999-01-03T05:00:00Z,28.9818,-94.9186,2.0,106.0527085,8.064452864,-99999.0,'11133222,11111222,99999999' 
TABS,ioos:station:wmo:42043:1,1999-01-03T06:00:00Z,28.9818,-94.9186,2.0,91.06749719,8.051397394,-99999.0,'11133222,11111222,99999999' 
TABS,ioos:station:wmo:42043:1,1999-01-04T17:30:00Z,28.9818,-94.9186,2.0,221.4233583,33.78063647,-99999.0,'11111222,11111222,99999999' 
TABS,ioos:station:wmo:42043:1,1999-01-04T18:00:00Z,28.9818,-94.9186,2.0,218.7858545,31.16142648,-99999.0,'11111222,11111222,99999999' 
TABS,ioos:station:wmo:42043:1,1999-01-04T18:30:00Z,28.9818,-94.9186,2.0,215.0268302,26.74383106,-99999.0,'11111222,11111222,99999999' 
TABS,ioos:station:wmo:42043:1,1999-01-04T19:00:00Z,28.9818,-94.9186,2.0,212.6832386,30.62972413,-99999.0,'11111222,11111222,99999999' 
TABS,ioos:station:wmo:42043:1,1999-01-04T19:30:00Z,28.9818,-94.9186,2.0,216.3761668,24.61691289,-99999.0,'11111222,11111222,99999999' 
TABS,ioos:station:wmo:42043:1,1999-01-04T20:00:00Z,28.9818,-94.9186,2.0,208.4588604,18.13100108,-99999.0,'11111222,11111222,99999999' 
TABS,ioos:station:wmo:42043:1,1999-01-04T20:30:00Z,28.9818,-94.9186,2.0,213.065649,18.84151002,-99999.0,'11111222,11111222,99999999' 
TABS,ioos:station:wmo:42043:1,1999-01-04T21:00:00Z,28.9818,-94.9186,2.0,227.8812613,8.439383864,-99999.0,'11133222,11111222,99999999' 
TABS,ioos:station:wmo:42043:1,1999-01-04T21:30:00Z,28.9818,-94.9186,2.0,216.676117,9.476054031,-99999.0,'11133222,11111222,99999999' 
TABS,ioos:station:wmo:42043:1,1999-01-04T22:00:00Z,28.9818,-94.9186,2.0,207.2171154,11.39126859,-99999.0,'11111222,11111222,99999999' 
TABS,ioos:station:wmo:42043:1,1999-01-04T22:30:00Z,28.9818,-94.9186,2.0,193.8129526,9.968289723,-99999.0,'11133222,11111222,99999999' 
TABS,ioos:station:wmo:42043:1,1999-01-04T23:00:00Z,28.9818,-94.9186,2.0,177.256091,9.400776564,-99999.0,'11133222,11111222,99999999' 
TABS,ioos:station:wmo:42043:1,1999-01-04T23:30:00Z,28.9818,-94.9186,2.0,174.4365937,4.64186385,-99999.0,'11133222,11111222,99999999' 
TABS,ioos:station:wmo:42043:1,1999-01-05T00:00:00Z,28.9818,-94.9186,2.0,186.0509338,5.691713275,-99999.0,'11133222,11111222,99999999' 
TABS,ioos:station:wmo:42043:1,1999-01-05T00:30:00Z,28.9818,-94.9186,2.0,152.786373,5.532386465,-99999.0,'11133222,11111222,99999999' 
TABS,ioos:station:wmo:42043:1,1999-01-05T01:00:00Z,28.9818,-94.9186,2.0,167.9833411,7.15682192,-99999.0,'11133222,11111222,99999999' 
TABS,ioos:station:wmo:42043:1,1999-01-05T01:30:00Z,28.9818,-94.9186,2.0,187.0082015,9.752871372,-99999.0,'11133222,11111222,99999999' 
TABS,ioos:station:wmo:42043:1,1999-01-05T02:00:00Z,28.9818,-94.9186,2.0,194.974981,10.95195416,-99999.0,'11111222,11111222,99999999' 
TABS,ioos:station:wmo:42043:1,1999-01-05T02:30:00Z,28.9818,-94.9186,2.0,187.295377,12.91455381,-99999.0,'11111222,11111222,99999999' 
TABS,ioos:station:wmo:42043:1,1999-01-05T03:00:00Z,28.9818,-94.9186,2.0,184.5354833,13.15118626,-99999.0,'11111222,11111222,99999999' 
TABS,ioos:station:wmo:42043:1,1999-01-05T03:30:00Z,28.9818,-94.9186,2.0,182.0403389,16.85068545,-99999.0,'11111222,11111222,99999999' 
TABS,ioos:station:wmo:42043:1,1999-01-05T04:00:00Z,28.9818,-94.9186,2.0,199.5085001,12.4868651,-99999.0,'11111222,11111222,99999999' 
TABS,ioos:station:wmo:42043:1,1999-01-05T04:30:00Z,28.9818,-94.9186,2.0,207.5099528,11.92880966,-99999.0,'11111222,11111222,99999999' 
TABS,ioos:station:wmo:42043:1,1999-01-05T05:00:00Z,28.9818,-94.9186,2.0,223.5933634,8.643448386,-99999.0,'11133222,11111222,99999999' 
TABS,ioos:station:wmo:42043:1,1999-01-05T05:30:00Z,28.9818,-94.9186,2.0,214.4313723,9.214342082,-99999.0,'11133222,11111222,99999999' 
TABS,ioos:station:wmo:42043:1,1999-01-05T06:00:00Z,28.9818,-94.9186,2.0,238.4994824,7.693763708,-99999.0,'11133222,11111222,99999999' 
TABS,ioos:station:wmo:42043:1,1999-01-05T06:30:00Z,28.9818,-94.9186,2.0,244.4130424,7.59479427,-99999.0,'11133222,11111222,99999999' 
TABS,ioos:station:wmo:42043:1,1999-01-05T07:00:00Z,28.9818,-94.9186,2.0,226.6394869,7.165926318,-99999.0,'11133222,11111222,99999999' 
TABS,ioos:station:wmo:42043:1,1999-01-05T07:30:00Z,28.9818,-94.9186,2.0,235.7280239,8.470708353,-99999.0,'11133222,11111222,99999999' 
TABS,ioos:station:wmo:42043:1,1999-01-05T08:00:00Z,28.9818,-94.9186,2.0,243.0139688,8.528593084,-99999.0,'11133222,11111222,99999999' 
TABS,ioos:station:wmo:42043:1,1999-01-05T08:30:00Z,28.9818,-94.9186,2.0,229.6561961,10.36504221,-99999.0,'11111222,11111222,99999999' 
TABS,ioos:station:wmo:42043:1,1999-01-05T09:00:00Z,28.9818,-94.9186,2.0,217.5987426,11.47292901,-99999.0,'11111222,11111222,99999999' 
TABS,ioos:station:wmo:42043:1,1999-01-05T09:30:00Z,28.9818,-94.9186,2.0,227.4219139,12.54821501,-99999.0,'11111222,11111222,99999999' 
TABS,ioos:station:wmo:42043:1,1999-01-05T10:00:00Z,28.9818,-94.9186,2.0,212.145597,15.12939523,-99999.0,'11111222,11111222,99999999' 
TABS,ioos:station:wmo:42043:1,1999-01-05T10:30:00Z,28.9818,-94.9186,2.0,210.2511733,16.5543227,-99999.0,'11111222,11111222,99999999' 
TABS,ioos:station:wmo:42043:1,1999-01-05T11:00:00Z,28.9818,-94.9186,2.0,204.7122705,18.53774798,-99999.0,'11111222,11111222,99999999' 
TABS,ioos:station:wmo:42043:1,1999-01-05T11:30:00Z,28.9818,-94.9186,2.0,208.2346099,18.26301454,-99999.0,'11111222,11111222,99999999' 
TABS,ioos:station:wmo:42043:1,1999-01-05T12:00:00Z,28.9818,-94.9186,2.0,206.9480213,20.05797846,-99999.0,'11111222,11111222,99999999' 
TABS,ioos:station:wmo:42043:1,1999-01-05T12:30:00Z,28.9818,-94.9186,2.0,210.3021131,22.43522454,-99999.0,'11111222,11111222,99999999' 
TABS,ioos:station:wmo:42043:1,1999-01-05T13:00:00Z,28.9818,-94.9186,2.0,211.7382373,24.35159543,-99999.0,'11111222,11111222,99999999' 
TABS,ioos:station:wmo:42043:1,1999-01-05T13:30:00Z,28.9818,-94.9186,2.0,214.7327983,24.83526928,-99999.0,'11111222,11111222,99999999' 
TABS,ioos:station:wmo:42043:1,1999-01-05T14:00:00Z,28.9818,-94.9186,2.0,219.4978686,25.29661044,-99999.0,'11111222,11111222,99999999' 
TABS,ioos:station:wmo:42043:1,1999-01-05T14:30:00Z,28.9818,-94.9186,2.0,227.7731373,26.1582358,-99999.0,'11111222,11111222,99999999' 
TABS,ioos:station:wmo:42043:1,1999-01-05T15:00:00Z,28.9818,-94.9186,2.0,230.8135052,24.99041816,-99999.0,'11111222,11111222,99999999' 
TABS,ioos:station:wmo:42043:1,1999-01-05T15:30:00Z,28.9818,-94.9186,2.0,233.4151208,24.4963038,-99999.0,'11111222,11111222,99999999' 
TABS,ioos:station:wmo:42043:1,1999-01-05T16:00:00Z,28.9818,-94.9186,2.0,241.4347786,23.06791061,-99999.0,'11111222,11111222,99999999' 
TABS,ioos:station:wmo:42043:1,1999-01-05T16:30:00Z,28.9818,-94.9186,2.0,243.6044263,21.12199091,-99999.0,'11111222,11111222,99999999' 
TABS,ioos:station:wmo:42043:1,1999-01-05T17:00:00Z,28.9818,-94.9186,2.0,254.5678918,17.92627401,-99999.0,'11111222,11111222,99999999' 
TABS,ioos:station:wmo:42043:1,1999-01-05T17:30:00Z,28.9818,-94.9186,2.0,261.8125778,15.6595945,-99999.0,'11111222,11111222,99999999' 
TABS,ioos:station:wmo:42043:1,1999-01-05T18:00:00Z,28.9818,-94.9186,2.0,263.3229797,14.10566198,-99999.0,'11111222,11111222,99999999' 
TABS,ioos:station:wmo:42043:1,1999-01-05T23:00:00Z,28.9818,-94.9186,2.0,258.2772053,11.7143203,-99999.0,'11111222,11111222,99999999' 
TABS,ioos:station:wmo:42043:1,1999-01-05T23:30:00Z,28.9818,-94.9186,2.0,248.4359605,12.97835891,-99999.0,'11111222,11111222,99999999' 
TABS,ioos:station:wmo:42043:1,1999-01-06T00:00:00Z,28.9818,-94.9186,2.0,250.166721,11.40656828,-99999.0,'11111222,11111222,99999999' 
TABS,ioos:station:wmo:42043:1,1999-01-06T00:30:00Z,28.9818,-94.9186,2.0,250.1583524,9.663669075,-99999.0,'11133222,11111222,99999999' 
TABS,ioos:station:wmo:42043:1,1999-01-06T01:00:00Z,28.9818,-94.9186,2.0,233.3946147,6.490069337,-99999.0,'11133222,11111222,99999999' 
TABS,ioos:station:wmo:42043:1,1999-01-06T03:00:00Z,28.9818,-94.9186,2.0,293.1906703,18.15705373,-99999.0,'11111222,11111222,99999999' 
TABS,ioos:station:wmo:42043:1,1999-01-06T03:30:00Z,28.9818,-94.9186,2.0,290.7297513,18.95724136,-99999.0,'11111222,11111222,99999999' 
TABS,ioos:station:wmo:42043:1,1999-01-06T04:00:00Z,28.9818,-94.9186,2.0,284.0240667,22.11924954,-99999.0,'11111222,11111222,99999999' 
TABS,ioos:station:wmo:42043:1,1999-01-06T05:00:00Z,28.9818,-94.9186,2.0,298.9334011,33.87852712,-99999.0,'11111222,11111222,99999999' 
TABS,ioos:station:wmo:42043:1,1999-01-08T01:30:00Z,28.9818,-94.9186,2.0,194.9452491,34.08297229,-99999.0,'11111222,11111222,99999999' 
TABS,ioos:station:wmo:42043:1,1999-01-08T02:00:00Z,28.9818,-94.9186,2.0,197.3464042,32.46663672,-99999.0,'11111222,11111222,99999999' 
TABS,ioos:station:wmo:42043:1,1999-01-08T02:30:00Z,28.9818,-94.9186,2.0,203.5658041,33.16606097,-99999.0,'11111222,11111222,99999999' 
TABS,ioos:station:wmo:42043:1,1999-01-08T03:00:00Z,28.9818,-94.9186,2.0,215.7892987,34.90020344,-99999.0,'11111222,11111222,99999999' 
TABS,ioos:station:wmo:42043:1,1999-01-08T03:30:00Z,28.9818,-94.9186,2.0,211.9315606,36.33887725,-99999.0,'11111222,11111222,99999999' 
TABS,ioos:station:wmo:42043:1,1999-01-08T04:00:00Z,28.9818,-94.9186,2.0,218.6620426,35.29527022,-99999.0,'11111222,11111222,99999999' 
TABS,ioos:station:wmo:42043:1,1999-01-08T04:30:00Z,28.9818,-94.9186,2.0,226.3172715,41.20693631,-99999.0,'11111222,11111222,99999999' 
TABS,ioos:station:wmo:42043:1,1999-01-08T05:00:00Z,28.9818,-94.9186,2.0,231.7760181,40.21122356,-99999.0,'11111222,11111222,99999999' 
TABS,ioos:station:wmo:42043:1,1999-01-08T05:30:00Z,28.9818,-94.9186,2.0,228.9444978,38.33823809,-99999.0,'11111222,11111222,99999999' 
TABS,ioos:station:wmo:42043:1,1999-01-08T06:00:00Z,28.9818,-94.9186,2.0,220.9485495,34.33096124,-99999.0,'11111222,11111222,99999999' 
TABS,ioos:station:wmo:42043:1,1999-01-08T06:30:00Z,28.9818,-94.9186,2.0,228.6368082,39.9046288,-99999.0,'11111222,11111222,99999999' 
TABS,ioos:station:wmo:42043:1,1999-01-08T07:00:00Z,28.9818,-94.9186,2.0,226.795747,36.99986216,-99999.0,'11111222,11111222,99999999' 
TABS,ioos:station:wmo:42043:1,1999-01-08T07:30:00Z,28.9818,-94.9186,2.0,223.5723827,38.04000526,-99999.0,'11111222,11111222,99999999' 
TABS,ioos:station:wmo:42043:1,1999-01-08T08:00:00Z,28.9818,-94.9186,2.0,220.4383734,39.74507391,-99999.0,'11111222,11111222,99999999' 
TABS,ioos:station:wmo:42043:1,1999-01-08T08:30:00Z,28.9818,-94.9186,2.0,223.0561797,37.3213518,-99999.0,'11111222,11111222,99999999' 
TABS,ioos:station:wmo:42043:1,1999-01-08T09:00:00Z,28.9818,-94.9186,2.0,218.1831633,41.70295913,-99999.0,'11111222,11111222,99999999' 
TABS,ioos:station:wmo:42043:1,1999-01-08T09:30:00Z,28.9818,-94.9186,2.0,219.8825193,43.68238203,-99999.0,'11111222,11111222,99999999' 
TABS,ioos:station:wmo:42043:1,1999-01-08T10:00:00Z,28.9818,-94.9186,2.0,215.723607,48.99980102,-99999.0,'11111222,11111222,99999999' 
TABS,ioos:station:wmo:42043:1,1999-01-08T10:30:00Z,28.9818,-94.9186,2.0,215.6401459,55.74083243,-99999.0,'11111222,11111222,99999999' 
TABS,ioos:station:wmo:42043:1,1999-01-08T11:00:00Z,28.9818,-94.9186,2.0,215.5037784,57.47632991,-99999.0,'11111222,11111222,99999999' 
TABS,ioos:station:wmo:42043:1,1999-01-08T11:30:00Z,28.9818,-94.9186,2.0,214.6430143,54.51515936,-99999.0,'11111222,11111222,99999999' 
TABS,ioos:station:wmo:42043:1,1999-01-08T12:00:00Z,28.9818,-94.9186,2.0,215.2163133,55.80323019,-99999.0,'11111222,11111222,99999999' 
TABS,ioos:station:wmo:42043:1,1999-01-08T12:30:00Z,28.9818,-94.9186,2.0,214.5426602,55.71193947,-99999.0,'11111222,11111222,99999999' 
TABS,ioos:station:wmo:42043:1,1999-01-08T13:00:00Z,28.9818,-94.9186,2.0,214.6107382,59.01385685,-99999.0,'11111222,11111222,99999999' 
TABS,ioos:station:wmo:42043:1,1999-01-08T13:30:00Z,28.9818,-94.9186,2.0,215.7720612,62.43945547,-99999.0,'11111222,11111222,99999999' 
TABS,ioos:station:wmo:42043:1,1999-01-08T14:00:00Z,28.9818,-94.9186,2.0,219.4491146,60.9697794,-99999.0,'11111222,11111222,99999999' 
TABS,ioos:station:wmo:42043:1,1999-01-08T14:30:00Z,28.9818,-94.9186,2.0,219.6526152,57.6680154,-99999.0,'11111222,11111222,99999999' 
TABS,ioos:station:wmo:42043:1,1999-01-08T15:00:00Z,28.9818,-94.9186,2.0,220.2058305,56.77422038,-99999.0,'11111222,11111222,99999999' 
TABS,ioos:station:wmo:42043:1,1999-01-08T15:30:00Z,28.9818,-94.9186,2.0,219.9853046,55.41591558,-99999.0,'11111222,11111222,99999999' 
TABS,ioos:station:wmo:42043:1,1999-01-08T16:00:00Z,28.9818,-94.9186,2.0,219.9052874,55.74222098,-99999.0,'11111222,11111222,99999999' 
TABS,ioos:station:wmo:42043:1,1999-01-08T16:30:00Z,28.9818,-94.9186,2.0,217.0921355,55.09841559,-99999.0,'11111222,11111222,99999999' 
TABS,ioos:station:wmo:42043:1,1999-01-08T17:00:00Z,28.9818,-94.9186,2.0,218.4678946,55.57162046,-99999.0,'11111222,11111222,99999999' 
TABS,ioos:station:wmo:42043:1,1999-01-08T17:30:00Z,28.9818,-94.9186,2.0,217.5125605,55.78551246,-99999.0,'11111222,11111222,99999999' 
TABS,ioos:station:wmo:42043:1,1999-01-08T18:00:00Z,28.9818,-94.9186,2.0,223.4117119,53.3292612,-99999.0,'11111222,11111222,99999999' 
TABS,ioos:station:wmo:42043:1,1999-01-08T18:30:00Z,28.9818,-94.9186,2.0,227.1278278,51.03173914,-99999.0,'11111222,11111222,99999999' 
TABS,ioos:station:wmo:42043:1,1999-01-08T19:00:00Z,28.9818,-94.9186,2.0,228.9298507,49.21015038,-99999.0,'11111222,11111222,99999999' 
TABS,ioos:station:wmo:42043:1,1999-01-08T19:30:00Z,28.9818,-94.9186,2.0,235.9581296,46.57073115,-99999.0,'11111222,11111222,99999999' 
TABS,ioos:station:wmo:42043:1,1999-01-08T20:00:00Z,28.9818,-94.9186,2.0,239.6991593,44.00091022,-99999.0,'11111222,11111222,99999999' 
TABS,ioos:station:wmo:42043:1,1999-01-08T20:30:00Z,28.9818,-94.9186,2.0,240.1007472,42.44980094,-99999.0,'11111222,11111222,99999999' 
TABS,ioos:station:wmo:42043:1,1999-01-08T21:00:00Z,28.9818,-94.9186,2.0,239.8020337,42.06893391,-99999.0,'11111222,11111222,99999999' 
TABS,ioos:station:wmo:42043:1,1999-01-08T21:30:00Z,28.9818,-94.9186,2.0,239.9995172,42.31983105,-99999.0,'11111222,11111222,99999999' 
TABS,ioos:station:wmo:42043:1,1999-01-08T22:00:00Z,28.9818,-94.9186,2.0,245.1134,41.06288957,-99999.0,'11111222,11111222,99999999' 
TABS,ioos:station:wmo:42043:1,1999-01-08T22:30:00Z,28.9818,-94.9186,2.0,247.4752219,36.93774357,-99999.0,'11111222,11111222,99999999' 
TABS,ioos:station:wmo:42043:1,1999-01-08T23:00:00Z,28.9818,-94.9186,2.0,243.6386991,38.91677402,-99999.0,'11111222,11111222,99999999' 
TABS,ioos:station:wmo:42043:1,1999-01-08T23:30:00Z,28.9818,-94.9186,2.0,244.1768116,36.24970345,-99999.0,'11111222,11111222,99999999' 
TABS,ioos:station:wmo:42043:1,1999-01-09T00:00:00Z,28.9818,-94.9186,2.0,250.5528286,37.60534536,-99999.0,'11111222,11111222,99999999' 
TABS,ioos:station:wmo:42043:1,1999-01-09T00:30:00Z,28.9818,-94.9186,2.0,249.1437358,35.55992829,-99999.0,'11111222,11111222,99999999' 
TABS,ioos:station:wmo:42043:1,1999-01-09T01:00:00Z,28.9818,-94.9186,2.0,244.1837432,35.91432166,-99999.0,'11111222,11111222,99999999' 
TABS,ioos:station:wmo:42043:1,1999-01-09T02:00:00Z,28.9818,-94.9186,2.0,245.6867184,32.20636738,-99999.0,'11111222,11111222,99999999' 
TABS,ioos:station:wmo:42043:1,1999-01-09T02:30:00Z,28.9818,-94.9186,2.0,245.4233323,32.60362096,-99999.0,'11111222,11111222,99999999' 
TABS,ioos:station:wmo:42043:1,1999-01-09T03:00:00Z,28.9818,-94.9186,2.0,231.7147642,31.50560744,-99999.0,'11111222,11111222,99999999' 
TABS,ioos:station:wmo:42043:1,1999-01-09T03:30:00Z,28.9818,-94.9186,2.0,215.6584644,32.45525073,-99999.0,'11111222,11111222,99999999' 
TABS,ioos:station:wmo:42043:1,1999-01-09T04:00:00Z,28.9818,-94.9186,2.0,203.2311022,29.83939175,-99999.0,'11111222,11111222,99999999' 
TABS,ioos:station:wmo:42043:1,1999-01-09T04:30:00Z,28.9818,-94.9186,2.0,201.4082525,28.16321715,-99999.0,'11111222,11111222,99999999' 
TABS,ioos:station:wmo:42043:1,1999-01-09T05:00:00Z,28.9818,-94.9186,2.0,195.007361,27.6117982,-99999.0,'11111222,11111222,99999999' 
TABS,ioos:station:wmo:42043:1,1999-01-09T06:00:00Z,28.9818,-94.9186,2.0,186.8298336,25.05782912,-99999.0,'11111222,11111222,99999999' 
TABS,ioos:station:wmo:42043:1,1999-01-09T06:30:00Z,28.9818,-94.9186,2.0,171.7573477,44.71186196,-99999.0,'11111222,11111222,99999999' 
TABS,ioos:station:wmo:42043:1,1999-01-09T07:00:00Z,28.9818,-94.9186,2.0,174.5207635,56.13647655,-99999.0,'11111222,11111222,99999999' 
TABS,ioos:station:wmo:42043:1,1999-01-09T07:30:00Z,28.9818,-94.9186,2.0,179.8650188,63.77017641,-99999.0,'11111222,11111222,99999999' 
TABS,ioos:station:wmo:42043:1,1999-01-09T08:00:00Z,28.9818,-94.9186,2.0,187.212846,60.52902196,-99999.0,'11111222,11111222,99999999' 
TABS,ioos:station:wmo:42043:1,1999-01-09T08:30:00Z,28.9818,-94.9186,2.0,193.8090534,63.68065326,-99999.0,'11111222,11111222,99999999' 